カタログに戻る

CZ-4C R/B

運用中SSO
NORAD 52201·ROCKET BODY·🇨🇳 China

打ち上げ Apr 6, 2022 から Jiuquan Satellite Launch Center

Loading…

次のパス (今後24時間)

TLE

最新Source: Space-Track

元期: Sep 14, 2026, 10:43 UTC

1 52201U 22035B   26257.44655627  .00000352  00000-0  57097-4 0  9995
2 52201  98.2230 326.7376 0103199 309.9803  49.2377 14.74533529238609

AllMySatでCZ-4C R/Bをリアルタイム追跡

Download on the App Store